Retour au catalogue

HULIANWANG DIGUI-170

ActifScienceLEO
NORAD 69573·PAYLOAD·🇨🇳 China

Lancé Jun 17, 2026 depuis Wenchang Space Launch Site

Loading…

Prochains Passages (prochaines 24 heures)

TLE

FraisSource: Space-Track

Époque: Sep 14, 2026, 09:27 UTC

1 69573U 26137B   26257.39399709 -.00000091  00000-0  71445-4 0  9996
2 69573  50.0004 276.1238 0000180 329.2466  30.8396 13.29327878 12205

Suivez HULIANWANG DIGUI-170 en temps réel avec AllMySat

Download on the App Store